Regional Weather Roundup
Issued by NWS

Home | Current Version | Previous Version | Text Only | Print | Product List | Glossary On
Versions: 1 2 3 4 5 6 7 8 9 10 11 12 13 14 15 16 17 18 19 20 21 22 23 24 25 26 27 28 29 30 31 32 33 34 35 36 37 38 39 40 41 42 43 44 45 46 47 48 49 50
000
ASUS45 KCYS 221810
RWRWY

WYOMING REGIONAL WEATHER ROUNDUP
NATIONAL WEATHER SERVICE CHEYENNE WY
1200 PM MDT MON MAY 22 2017

NOTE:  "FAIR" INDICATES FEW OR NO CLOUDS BELOW 12,000 FEET
WITH NO SIGNIFICANT WEATHER AND/OR OBSTRUCTIONS TO VISIBILITY.

WYZ001-221900-
YELLOWSTONE NATIONAL PARK

CITY           SKY/WX    TMP DP  RH WIND       PRES   REMARKS
LK YELLOWSTONE   N/A     53  27  36 MISG      30.31S
6HR MIN TEMP:  28; 6HR MAX TEMP:  54;

W YELLOWSTONE  NOT AVBL

$$
WYZ002>013-054>058-071-098>099-221900-
NORTHERN WYOMING

CITY           SKY/WX    TMP DP  RH WIND       PRES   REMARKS
JACKSON        MOSUNNY   59  28  31 CALM      30.27F
CODY           LGT RAIN  45  41  86 N17G23    30.28R
GREYBULL       PTSUNNY   53  44  71 NW22G29   30.18F
6HR MIN TEMP:  48; 6HR MAX TEMP:  55; 6HR PCP:  0.05;

WORLAND        LGT RAIN  47  43  86 N14       30.22R
6HR MIN TEMP:  43; 6HR MAX TEMP:  55; 6HR PCP:  0.06;

SHERIDAN       CLOUDY    47  43  86 N12       30.21R
6HR MIN TEMP:  47; 6HR MAX TEMP:  52; 6HR PCP:  0.07;

BUFFALO        LGT RAIN  43  39  86 N23G36    30.21R
6HR MIN TEMP:  42; 6HR MAX TEMP:  51; 6HR PCP:  0.09;

GILLETTE       LGT RAIN  44  42  93 NW14      30.16R
6HR MIN TEMP:  41; 6HR MAX TEMP:  55; 6HR PCP:  0.17;

HULETT         MOCLDY    46  41  81 N12       30.12S
NEWCASTLE      FAIR      46  39  76 NW13      30.10F

$$
WYZ014>020-022>026-101>103-221900-
CENTRAL WYOMING

CITY           SKY/WX    TMP DP  RH WIND       PRES   REMARKS
BIG PINEY      FAIR      60  27  28 N13G28    30.27F
6HR MIN TEMP:  27; 6HR MAX TEMP:  61;

PINEDALE       FAIR      55  28  35 NW15G22   30.26F
DUBOIS         MOCLDY    54  23  30 NW16      30.23F
LANDER         PTSUNNY   61  39  44 E13       30.17S
6HR MIN TEMP:  39; 6HR MAX TEMP:  62;

RIVERTON       FAIR      56  39  53 NE23G31   30.19S
6HR MIN TEMP:  40; 6HR MAX TEMP:  60;

CASPER         CLOUDY    47  39  74 NE16      30.18R
6HR MIN TEMP:  41; 6HR MAX TEMP:  56; 6HR PCP: TRACE;

DOUGLAS        LGT RAIN  41  38  89 N15G25    30.18R
6HR MIN TEMP:  36; 6HR MAX TEMP:  52; 6HR PCP:  0.02;


$$
WYZ021-027>030-104>119-221900-
SOUTHERN WYOMING

CITY           SKY/WX    TMP DP  RH WIND       PRES   REMARKS
EVANSTON       PTSUNNY   57  32  38 N6        30.32F
6HR MIN TEMP:  36; 6HR MAX TEMP:  59;

ROCK SPRINGS   FAIR      56  29  35 NW12      30.25F
6HR MIN TEMP:  35; 6HR MAX TEMP:  59;

DIXON            N/A     56  37  48 W7        30.28F
RAWLINS        PTSUNNY   55  32  41 W18G24    30.20F
6HR MIN TEMP:  34; 6HR MAX TEMP:  57;

SARATOGA       MOCLDY    54  30  40 W14G29    30.22F
LARAMIE        PTSUNNY   52  27  38 NW21G28   30.17F
6HR MIN TEMP:  27; 6HR MAX TEMP:  54;

CHEYENNE       FAIR      58  29  33 NW20G36   30.13F
6HR MIN TEMP:  37; 6HR MAX TEMP:  59;

TORRINGTON     CLOUDY    54  38  54 N15G26    30.08S
6HR MIN TEMP:  39; 6HR MAX TEMP:  56;

PINE BLUFFS    FAIR      59  36  41 N13G23    30.11F

$$



USA.gov is the U.S. government's official web portal to all federal, state and local government web resources and services.